Orbital Elements
Epoch 2016 Oct. 19.0 TT = JDT 2457680.5
T 2016 Oct. 7.86417 TT MPCW
q 4.2337646 (2000.0) P Q
n 0.05037361 Peri. 213.74136 -0.52035278 -0.85113262
a 7.2610704 Node 267.70434 +0.79801651 -0.45576513
e 0.4169228 Incl. 3.97854 +0.30397801 -0.26048305
P 19.57
From 358 observations 1997 Apr. 9-2017 May 17, mean residual 0".5.
|